N5TM-4 Weather Reports


Display with metric or nautical units.
time (UTC)temp
F
wind
direction
speed
MPH
gust
MPH
rain 1hr
in
rain 24hr
in
rain mn
in
humidity
%
barometer
mb
20260506182520 84 180 4.0 9.0 0.00 0.00 0.00 74 1009.7
20260506182022 85 142 4.0 8.0 0.00 0.00 0.00 74 1009.8
20260506181520 84 133 0.0 6.0 0.00 0.00 0.00 75 1009.9
20260506181020 84 150 2.0 6.0 0.00 0.00 0.00 75 1010.1
20260506180519 84 165 3.0 6.0 0.00 0.00 0.00 74 1010.1
20260506180017 83 164 2.0 5.0 0.00 0.00 0.00 78 1010.2
20260506175517 83 123 3.0 7.0 0.00 0.00 0.00 78 1010.4
20260506175019 83 175 2.0 7.0 0.00 0.00 0.00 78 1010.5
20260506174517 83 155 2.0 6.0 0.00 0.00 0.00 78 1010.5
20260506174016 83 164 2.0 5.0 0.00 0.00 0.00 77 1010.6
20260506173516 83 240 1.0 6.0 0.00 0.00 0.00 78 1010.8
20260506173016 83 150 3.0 5.0 0.00 0.00 0.00 77 1010.8
20260506172515 83 205 1.0 6.0 0.00 0.00 0.00 78 1010.9
20260506172015 83 168 2.0 7.0 0.00 0.00 0.00 78 1010.7
20260506171515 83 169 4.0 8.0 0.00 0.00 0.00 78 1010.8
20260506171014 83 186 2.0 8.0 0.00 0.00 0.00 78 1010.9
20260506170512 82 159 2.0 7.0 0.00 0.00 0.00 81 1010.9
20260506170011 81 163 3.0 7.0 0.00 0.00 0.00 82 1010.9
20260506165509 80 153 4.0 8.0 0.00 0.00 0.00 83 1010.9
20260506165008 79 167 2.0 7.0 0.00 0.00 0.00 85 1010.9
20260506164508 79 157 3.0 7.0 0.00 0.00 0.00 85 1011.0
20260506164008 79 155 3.0 6.0 0.00 0.00 0.00 85 1010.9
20260506163507 79 171 2.0 6.0 0.00 0.00 0.00 86 1011.0
20260506163019 78 136 1.0 7.0 0.00 0.00 0.00 86 1010.9
20260506162508 78 158 2.0 6.0 0.00 0.00 0.00 86 1010.8
20260506162005 78 164 2.0 6.0 0.00 0.00 0.00 86 1010.7
20260506161506 79 163 3.0 6.0 0.00 0.00 0.00 86 1010.6
20260506161004 79 171 1.0 5.0 0.00 0.00 0.00 86 1010.6
20260506160510 79 152 1.0 6.0 0.00 0.00 0.00 85 1010.6
20260506160011 79 149 3.0 6.0 0.00 0.00 0.00 84 1010.5
20260506155503 79 167 3.0 6.0 0.00 0.00 0.00 83 1010.4
20260506155005 79 187 3.0 5.0 0.00 0.00 0.00 83 1010.4
20260506154503 80 165 3.0 6.0 0.00 0.00 0.00 83 1010.4
20260506154005 80 136 1.0 5.0 0.00 0.00 0.00 83 1010.5
20260506153502 79 175 1.0 6.0 0.00 0.00 0.00 83 1010.5
20260506153115 79 170 3.0 6.0 0.00 0.00 0.00 83 1010.4
20260506152559 79 163 1.0 5.0 0.00 0.00 0.00 83 1010.4
20260506152100 79 155 2.0 5.0 0.00 0.00 0.00 83 1010.2
20260506151559 79 162 2.0 5.0 0.00 0.00 0.00 84 1010.1
20260506151056 79 161 2.0 5.0 0.00 0.00 0.00 84 1009.9
20260506150556 79 153 0.0 9.0 0.00 0.00 0.00 84 1009.9
20260506150056 79 169 5.0 9.0 0.00 0.00 0.00 84 1009.9
20260506145555 79 185 3.0 7.0 0.00 0.00 0.00 84 1009.9
20260506145054 79 166 2.0 7.0 0.00 0.00 0.00 84 1009.9
20260506144555 79 149 3.0 8.0 0.00 0.00 0.00 84 1009.7
20260506144053 79 123 4.0 8.0 0.00 0.00 0.00 85 1009.6
20260506143552 79 163 0.0 7.0 0.00 0.00 0.00 86 1009.5
20260506143103 78 159 2.0 7.0 0.00 0.00 0.00 87 1009.4
20260506142550 78 161 2.0 7.0 0.00 0.00 0.00 87 1009.4
20260506142050 78 172 4.0 8.0 0.00 0.00 0.00 87 1009.3
20260506141550 78 137 4.0 8.0 0.00 0.00 0.00 87 1009.5
20260506141053 78 145 2.0 8.0 0.00 0.00 0.00 88 1009.5
20260506140548 77 149 2.0 9.0 0.00 0.00 0.00 89 1009.6
20260506140047 77 124 3.0 9.0 0.00 0.00 0.00 89 1009.6
20260506135546 77 141 3.0 6.0 0.00 0.00 0.00 91 1009.6
20260506135045 76 160 2.0 6.0 0.00 0.00 0.00 91 1009.6
20260506134544 76 164 2.0 6.0 0.00 0.00 0.00 91 1009.6
20260506134044 76 164 2.0 6.0 0.00 0.00 0.00 92 1009.6
20260506133543 76 150 1.0 5.0 0.00 0.00 0.00 92 1009.6
20260506133042 75 157 2.0 5.0 0.00 0.00 0.00 92 1009.7
20260506132543 75 164 1.0 5.0 0.00 0.00 0.00 93 1009.7
20260506132042 75 164 1.0 3.0 0.00 0.00 0.00 93 1009.9
20260506131542 75 164 0.0 3.0 0.00 0.00 0.00 93 1009.8
20260506131042 75 164 1.0 4.0 0.00 0.00 0.00 93 1009.8
20260506130542 75 164 1.0 4.0 0.00 0.00 0.00 93 1009.8
20260506130041 75 164 1.0 3.0 0.00 0.00 0.00 93 1009.8
20260506125544 74 164 1.0 4.0 0.00 0.00 0.00 93 1009.9
20260506125045 74 164 1.0 5.0 0.00 0.00 0.00 93 1009.9
20260506124540 74 164 1.0 5.0 0.00 0.00 0.00 93 1009.9
20260506124040 74 164 1.0 3.0 0.00 0.00 0.00 93 1009.8
20260506123540 74 164 1.0 2.0 0.00 0.00 0.00 93 1009.8
20260506123040 74 164 0.0 3.0 0.00 0.00 0.00 93 1009.8
20260506122538 74 164 0.0 3.0 0.00 0.00 0.00 93 1009.7
20260506122038 74 164 0.0 3.0 0.00 0.00 0.00 93 1009.6
20260506121542 74 164 1.0 3.0 0.00 0.00 0.00 93 1009.5
20260506121038 74 164 0.0 2.0 0.00 0.00 0.00 93 1009.5
20260506120538 74 164 0.0 2.0 0.00 0.00 0.00 93 1009.4
20260506120038 74 164 0.0 1.0 0.00 0.00 0.00 93 1009.4
20260506115537 73 164 0.0 1.0 0.00 0.00 0.00 93 1009.3
20260506115036 73 164 0.0 1.0 0.00 0.00 0.00 93 1009.3
20260506114544 73 164 0.0 2.0 0.00 0.00 0.00 93 1009.2
20260506114036 74 164 0.0 3.0 0.00 0.00 0.00 93 1009.1
20260506113539 73 164 0.0 3.0 0.00 0.00 0.00 93 1009.0
20260506113036 74 164 0.0 2.0 0.00 0.00 0.00 93 1009.1
20260506112536 73 164 0.0 6.0 0.00 0.00 0.00 93 1009.0
20260506112037 74 164 1.0 6.0 0.00 0.00 0.00 93 1008.9
20260506111539 74 164 1.0 5.0 0.00 0.00 0.00 93 1008.8
20260506111035 74 161 1.0 5.0 0.00 0.00 0.00 93 1008.8
20260506110535 74 162 1.0 5.0 0.00 0.00 0.00 92 1008.8
20260506110035 74 188 2.0 4.0 0.00 0.00 0.00 92 1008.7
20260506105534 74 188 1.0 5.0 0.00 0.00 0.00 92 1008.6
20260506105033 74 188 2.0 5.0 0.00 0.00 0.00 92 1008.6
20260506104534 74 188 1.0 4.0 0.00 0.00 0.00 92 1008.6
20260506104033 74 188 0.0 4.0 0.00 0.00 0.00 92 1008.6
20260506103533 74 188 1.0 4.0 0.00 0.00 0.00 92 1008.6
20260506103032 74 188 0.0 2.0 0.00 0.00 0.00 92 1008.6
20260506102532 74 188 1.0 3.0 0.00 0.00 0.00 92 1008.7
20260506102031 74 188 1.0 4.0 0.00 0.00 0.00 91 1008.7
20260506101533 74 188 1.0 6.0 0.00 0.00 0.00 91 1008.7
20260506101030 74 190 3.0 7.0 0.00 0.00 0.00 91 1008.5
20260506100532 74 181 4.0 7.0 0.00 0.00 0.00 91 1008.5
20260506100030 74 176 2.0 5.0 0.00 0.00 0.00 91 1008.5
20260506095530 74 200 1.0 5.0 0.00 0.00 0.00 91 1008.5
20260506095029 74 138 2.0 6.0 0.00 0.00 0.00 91 1008.4
20260506094530 74 189 3.0 6.0 0.00 0.00 0.00 91 1008.4
20260506094028 74 169 3.0 5.0 0.00 0.00 0.00 91 1008.3
20260506093532 75 178 2.0 9.0 0.00 0.00 0.00 91 1008.3
20260506093030 75 171 4.0 9.0 0.00 0.00 0.00 90 1008.2
20260506092527 75 169 2.0 6.0 0.00 0.00 0.00 90 1008.3
20260506092026 75 184 2.0 7.0 0.00 0.00 0.00 90 1008.3
20260506091527 75 179 3.0 7.0 0.00 0.00 0.00 90 1008.3
20260506091024 75 173 2.0 7.0 0.00 0.00 0.00 90 1008.4
20260506090524 75 139 3.0 6.0 0.00 0.00 0.00 90 1008.5
20260506090023 75 148 2.0 6.0 0.00 0.00 0.00 90 1008.5
20260506085523 75 155 2.0 6.0 0.00 0.00 0.00 90 1008.6
20260506085023 75 177 2.0 6.0 0.00 0.00 0.00 90 1008.6
20260506084523 75 161 2.0 6.0 0.00 0.00 0.00 90 1008.5
20260506084022 75 160 4.0 6.0 0.00 0.00 0.00 90 1008.5
20260506083522 75 161 4.0 6.0 0.00 0.00 0.00 90 1008.6
20260506083022 75 161 2.0 6.0 0.00 0.00 0.00 90 1008.7
20260506082521 75 159 2.0 6.0 0.00 0.00 0.00 90 1008.6
20260506082020 75 158 2.0 7.0 0.00 0.00 0.00 90 1008.7
20260506081521 75 158 2.0 7.0 0.00 0.00 0.00 90 1008.7
20260506081020 75 192 3.0 7.0 0.00 0.00 0.00 90 1008.7
20260506080520 75 155 2.0 7.0 0.00 0.00 0.00 90 1008.7
20260506073519 75 150 2.0 8.0 0.00 0.00 0.00 90 1009.0
20260506073016 75 184 2.0 6.0 0.00 0.00 0.00 90 1009.1
20260506072516 75 171 2.0 7.0 0.00 0.00 0.00 90 1009.2
20260506072017 75 161 3.0 7.0 0.00 0.00 0.00 90 1009.0
20260506071514 75 145 2.0 6.0 0.00 0.00 0.00 90 1009.1
20260506071017 75 150 2.0 6.0 0.00 0.00 0.00 90 1009.2
20260506070514 75 158 3.0 7.0 0.00 0.00 0.00 90 1009.2
20260506062516 75 150 2.0 5.0 0.00 0.00 0.00 90 1009.4
20260506062012 75 161 3.0 5.0 0.00 0.00 0.00 90 1009.5
20260506061516 75 123 2.0 5.0 0.00 0.00 0.00 90 1009.6
20260506061011 75 168 2.0 6.0 0.00 0.00 0.00 90 1009.6
20260506060511 75 126 1.0 6.0 0.00 0.00 0.00 90 1009.6
20260506051006 76 175 2.0 7.0 0.00 0.00 0.00 89 1009.5
20260506050508 76 170 3.0 7.0 0.00 0.00 0.00 88 1009.4
20260506045005 76 142 2.0 6.0 0.00 0.00 0.00 87 1009.5
20260506044505 76 163 1.0 5.0 0.00 0.00 0.00 87 1009.5
20260506044003 76 163 1.0 6.0 0.00 0.00 0.00 87 1009.6
20260506043504 76 162 3.0 6.0 0.00 0.00 0.00 87 1009.6
20260506043104 76 171 2.0 5.0 0.00 0.00 0.00 87 1009.6
20260506042505 76 162 2.0 6.0 0.00 0.00 0.00 87 1009.4
20260506042004 76 161 3.0 7.0 0.00 0.00 0.00 86 1009.4
20260506041504 76 153 2.0 11.0 0.00 0.00 0.00 86 1009.2
20260506041006 77 123 2.0 11.0 0.00 0.00 0.00 86 1009.2
20260506040503 77 134 5.0 10.0 0.00 0.00 0.00 85 1009.3
20260506040005 77 168 3.0 7.0 0.00 0.00 0.00 85 1009.4
20260506035503 77 178 4.0 7.0 0.00 0.00 0.00 85 1009.4
20260506035003 77 156 1.0 10.0 0.00 0.00 0.00 85 1009.3
20260506034503 77 178 5.0 10.0 0.00 0.00 0.00 85 1009.2
20260506034001 77 142 4.0 11.0 0.00 0.00 0.00 84 1009.1
20260506033502 77 177 4.0 11.0 0.00 0.00 0.00 84 1008.9
20260506033001 77 160 4.0 8.0 0.00 0.00 0.00 84 1008.8
20260506032501 77 153 4.0 8.0 0.00 0.00 0.00 84 1008.8
20260506032001 77 167 2.0 9.0 0.00 0.00 0.00 84 1008.7
20260506031504 77 175 4.0 10.0 0.00 0.00 0.00 84 1008.7
20260506031002 77 157 3.0 10.0 0.00 0.00 0.00 83 1008.7
20260506030501 77 172 4.0 10.0 0.00 0.00 0.00 83 1008.8
20260506025600 77 182 3.0 9.0 0.00 0.00 0.00 83 1008.7
20260506025100 77 183 4.0 7.0 0.00 0.00 0.00 83 1008.6
20260506024600 77 165 2.0 9.0 0.00 0.00 0.00 83 1008.5
20260506024100 78 178 4.0 10.0 0.00 0.00 0.00 83 1008.5
20260506023600 78 163 5.0 12.0 0.00 0.00 0.00 83 1008.5
20260506023100 78 155 7.0 11.0 0.00 0.00 0.00 83 1008.4
20260506022559 78 155 4.0 9.0 0.00 0.00 0.00 82 1008.3
20260506022059 78 171 2.0 12.0 0.00 0.00 0.00 82 1008.2
20260506021600 78 144 6.0 12.0 0.00 0.00 0.00 82 1008.2
20260506021059 78 180 4.0 11.0 0.00 0.00 0.00 82 1008.1
20260506020559 78 152 1.0 11.0 0.00 0.00 0.00 82 1008.1
20260506015558 78 163 6.0 13.0 0.00 0.00 0.00 81 1007.9
20260506015100 78 136 5.0 10.0 0.00 0.00 0.00 81 1007.9
20260506014558 78 149 4.0 11.0 0.00 0.00 0.00 81 1007.8
20260506014059 78 157 3.0 8.0 0.00 0.00 0.00 80 1007.8
20260506013557 78 169 4.0 11.0 0.00 0.00 0.00 80 1007.7
20260506013057 78 166 4.0 11.0 0.00 0.00 0.00 80 1007.6
20260506012559 78 155 4.0 10.0 0.00 0.00 0.00 79 1007.5
20260506012057 79 146 4.0 11.0 0.00 0.00 0.00 79 1007.3
20260506011607 79 171 4.0 15.0 0.00 0.00 0.00 79 1007.2
20260506011057 79 165 5.0 15.0 0.00 0.00 0.00 78 1007.2
20260506010601 79 114 5.0 12.0 0.00 0.00 0.00 78 1007.2
20260506010059 79 163 4.0 10.0 0.00 0.00 0.00 78 1007.1
20260506005556 79 180 2.0 11.0 0.00 0.00 0.00 77 1007.1
20260506005056 79 194 5.0 12.0 0.00 0.00 0.00 77 1007.0
20260506004559 79 170 7.0 12.0 0.00 0.00 0.00 77 1007.1
20260506004056 79 152 3.0 9.0 0.00 0.00 0.00 77 1007.1
20260506003556 79 118 4.0 15.0 0.00 0.00 0.00 77 1006.9
20260506003056 80 178 6.0 15.0 0.00 0.00 0.00 76 1006.8
20260506002558 80 183 4.0 10.0 0.00 0.00 0.00 76 1006.8
20260506002055 80 171 6.0 11.0 0.00 0.00 0.00 75 1006.8
20260506001555 80 170 4.0 10.0 0.00 0.00 0.00 75 1006.9
20260506001056 80 155 5.0 10.0 0.00 0.00 0.00 75 1006.8
20260506000556 80 207 4.0 11.0 0.00 0.00 0.00 75 1006.9
20260506000100 80 145 4.0 15.0 0.00 0.00 0.00 74 1006.9
20260505235555 80 162 6.0 15.0 0.00 0.00 0.00 74 1006.9
20260505235055 80 165 5.0 13.0 0.00 0.00 0.00 75 1006.9
20260505234603 81 189 6.0 13.0 0.00 0.00 0.00 74 1006.8
20260505234054 81 136 5.0 10.0 0.00 0.00 0.00 74 1006.7
20260505233554 81 250 5.0 10.0 0.00 0.00 0.00 75 1006.7
20260505233108 81 163 6.0 11.0 0.00 0.00 0.00 74 1006.7
20260505232554 81 167 5.0 11.0 0.00 0.00 0.00 74 1006.8
20260505232055 81 178 6.0 12.0 0.00 0.00 0.00 74 1006.9
20260505231556 81 190 7.0 11.0 0.00 0.00 0.00 73 1006.8
20260505231054 81 169 4.0 14.0 0.00 0.00 0.00 74 1006.8
20260505230552 81 140 5.0 14.0 0.00 0.00 0.00 73 1006.9
20260505230053 81 179 5.0 13.0 0.00 0.00 0.00 74 1006.8
20260505225552 81 216 7.0 13.0 0.00 0.00 0.00 74 1006.8
20260505225052 81 182 5.0 16.0 0.00 0.00 0.00 74 1006.9
20260505224553 82 155 6.0 15.0 0.00 0.00 0.00 74 1006.8
20260505224051 82 167 6.0 15.0 0.00 0.00 0.00 74 1006.8
20260505223550 82 168 5.0 11.0 0.00 0.00 0.00 74 1006.9
20260505223053 82 178 3.0 11.0 0.00 0.00 0.00 73 1006.9
20260505222550 82 180 5.0 15.0 0.00 0.00 0.00 73 1006.9
20260505222050 82 168 8.0 15.0 0.00 0.00 0.00 73 1006.9
20260505221550 82 155 8.0 14.0 0.00 0.00 0.00 73 1007.0
20260505221049 82 184 7.0 14.0 0.00 0.00 0.00 73 1006.9
20260505220548 83 178 4.0 10.0 0.00 0.00 0.00 72 1007.0
20260505220048 83 163 5.0 10.0 0.00 0.00 0.00 71 1007.1
20260505215549 84 192 2.0 9.0 0.00 0.00 0.00 71 1007.1
20260505215047 83 182 1.0 13.0 0.00 0.00 0.00 72 1007.1
20260505214551 83 157 5.0 13.0 0.00 0.00 0.00 71 1007.2
20260505214046 84 161 4.0 13.0 0.00 0.00 0.00 71 1007.2
20260505213545 84 188 3.0 13.0 0.00 0.00 0.00 71 1007.3
20260505213045 84 164 3.0 14.0 0.00 0.00 0.00 71 1007.4
20260505212544 83 153 4.0 17.0 0.00 0.00 0.00 72 1007.3
20260505212044 83 157 4.0 16.0 0.00 0.00 0.00 72 1007.4
20260505211543 83 162 5.0 11.0 0.00 0.00 0.00 72 1007.5
20260505211045 83 105 2.0 10.0 0.00 0.00 0.00 73 1007.6
20260505210642 83 165 3.0 10.0 0.00 0.00 0.00 73 1007.6
20260505210043 83 180 4.0 10.0 0.00 0.00 0.00 72 1007.7
20260505205541 83 169 3.0 12.0 0.00 0.00 0.00 72 1007.8
20260505205041 83 205 5.0 12.0 0.00 0.00 0.00 71 1007.9
20260505204542 84 250 4.0 12.0 0.00 0.00 0.00 70 1008.0
20260505204038 84 192 4.0 14.0 0.00 0.00 0.00 70 1008.1
20260505203543 84 211 3.0 10.0 0.00 0.00 0.00 70 1008.1
20260505203037 84 150 4.0 9.0 0.00 0.00 0.00 70 1008.1
20260505202539 84 219 3.0 8.0 0.00 0.00 0.00 71 1008.3
20260505202040 84 178 4.0 15.0 0.00 0.00 0.00 71 1008.3
20260505201536 84 200 3.0 15.0 0.00 0.00 0.00 70 1008.4
20260505201035 85 146 4.0 11.0 0.00 0.00 0.00 69 1008.4
20260505200535 85 161 3.0 12.0 0.00 0.00 0.00 68 1008.6
20260505200042 85 212 2.0 12.0 0.00 0.00 0.00 69 1008.5
20260505195535 85 200 3.0 10.0 0.00 0.00 0.00 70 1008.5
20260505195033 85 207 2.0 8.0 0.00 0.00 0.00 70 1008.6
20260505194532 84 202 2.0 11.0 0.00 0.00 0.00 71 1008.7
20260505194031 84 157 2.0 11.0 0.00 0.00 0.00 70 1008.7
20260505193530 84 188 3.0 8.0 0.00 0.00 0.00 71 1008.8
20260505193030 84 166 2.0 11.0 0.00 0.00 0.00 70 1008.8
20260505192533 84 196 3.0 14.0 0.00 0.00 0.00 70 1008.8
20260505192029 84 275 4.0 14.0 0.00 0.00 0.00 70 1008.8
20260505191529 84 205 2.0 10.0 0.00 0.00 0.00 70 1008.9
20260505191028 84 183 3.0 10.0 0.00 0.00 0.00 70 1008.9
20260505190527 83 190 1.0 13.0 0.00 0.00 0.00 72 1008.9
20260505190035 83 206 4.0 13.0 0.00 0.00 0.00 72 1008.9
20260505185527 82 227 4.0 14.0 0.00 0.00 0.00 73 1008.9
20260505185028 82 178 3.0 10.0 0.00 0.00 0.00 73 1009.1
20260505184527 82 140 1.0 10.0 0.00 0.00 0.00 72 1009.1
20260505184028 82 164 2.0 10.0 0.00 0.00 0.00 72 1009.1
20260505183526 83 157 3.0 10.0 0.00 0.00 0.00 72 1009.1
20260505183029 83 209 5.0 10.0 0.00 0.00 0.00 71 1009.1